TimeMST,TemperatureF,Dew PointF,Humidity,Sea Level PressureIn,VisibilityMPH,Wind Direction,Wind SpeedMPH,Gust SpeedMPH,PrecipitationIn,Events,Conditions,WindDirDegrees,DateUTC
12:23 AM,16.0,14.0,92,29.65,10.0,SE,4.6,-,N/A,,Overcast,140,2013-12-21 07:23:00
12:53 AM,16.0,14.0,92,29.65,10.0,SE,4.6,-,N/A,,Overcast,130,2013-12-21 07:53:00
1:39 AM,14.0,8.1,77,29.62,10.0,SSW,8.1,-,N/A,,Scattered Clouds,210,2013-12-21 08:39:00
1:53 AM,12.9,9.0,84,29.64,10.0,South,8.1,-,N/A,,Scattered Clouds,190,2013-12-21 08:53:00
2:53 AM,12.0,7.0,80,29.65,10.0,SSW,10.4,-,N/A,,Scattered Clouds,210,2013-12-21 09:53:00
3:00 AM,12.9,8.1,81,29.62,10.0,SSW,8.1,-,N/A,,Mostly Cloudy,200,2013-12-21 10:00:00
3:30 AM,10.9,7.0,84,29.61,10.0,SSW,6.9,-,N/A,,Scattered Clouds,200,2013-12-21 10:30:00
3:53 AM,10.0,6.1,84,29.65,10.0,SSW,8.1,-,N/A,,Clear,200,2013-12-21 10:53:00
4:53 AM,7.0,3.9,87,29.68,10.0,SSW,5.8,-,N/A,,Clear,200,2013-12-21 11:53:00
5:53 AM,9.0,5.0,84,29.67,10.0,SSW,8.1,-,N/A,,Mostly Cloudy,200,2013-12-21 12:53:00
6:53 AM,10.9,7.0,84,29.66,10.0,SSW,5.8,-,N/A,,Overcast,210,2013-12-21 13:53:00
7:53 AM,12.9,8.1,81,29.67,6.0,SSW,3.5,-,N/A,,Overcast,210,2013-12-21 14:53:00
8:53 AM,14.0,10.9,88,29.69,3.0,SSW,3.5,-,0.00,Snow,Light Snow,200,2013-12-21 15:53:00
9:53 AM,17.1,14.0,88,29.71,3.0,Calm,Calm,-,0.00,Snow,Light Snow,0,2013-12-21 16:53:00
10:53 AM,19.0,16.0,88,29.68,10.0,Calm,Calm,-,0.00,,Overcast,0,2013-12-21 17:53:00
11:53 AM,21.0,16.0,81,29.67,7.0,Calm,Calm,-,0.00,,Overcast,0,2013-12-21 18:53:00
12:53 PM,23.0,17.1,78,29.63,5.0,NE,3.5,-,0.00,Snow,Light Snow,50,2013-12-21 19:53:00
1:39 PM,23.0,18.0,81,29.61,7.0,North,5.8,-,0.00,Snow,Light Snow,10,2013-12-21 20:39:00
1:53 PM,23.0,17.1,78,29.67,7.0,NNW,8.1,-,0.00,,Overcast,330,2013-12-21 20:53:00
2:38 PM,21.9,17.1,82,29.63,3.0,North,6.9,-,0.00,Snow,Light Snow,360,2013-12-21 21:38:00
2:53 PM,21.9,18.0,85,29.70,4.0,North,9.2,-,0.00,Snow,Light Snow,10,2013-12-21 21:53:00
3:53 PM,21.0,17.1,85,29.74,2.0,NNE,5.8,-,0.00,Snow,Light Snow,20,2013-12-21 22:53:00
4:31 PM,21.0,18.0,88,29.68,1.2,NNE,4.6,-,0.00,Snow,Light Snow,30,2013-12-21 23:31:00
4:49 PM,21.2,17.6,86,29.68,3.0,North,6.9,-,0.01,Snow,Light Snow,10,2013-12-21 23:49:00
4:53 PM,21.0,18.0,88,29.79,3.0,North,5.8,-,0.01,Snow,Light Snow,360,2013-12-21 23:53:00
4:55 PM,21.0,18.0,88,29.68,2.5,North,6.9,-,0.00,Snow,Light Snow,360,2013-12-21 23:55:00
5:10 PM,19.9,18.0,92,29.69,3.0,North,6.9,-,0.00,Snow,Light Snow,10,2013-12-22 00:10:00
5:53 PM,19.9,17.1,89,29.81,10.0,NW,9.2,-,0.00,,Overcast,320,2013-12-22 00:53:00
6:15 PM,19.9,17.1,89,29.73,2.0,NNW,8.1,-,0.00,Snow,Light Snow,330,2013-12-22 01:15:00
6:27 PM,19.9,17.1,89,29.74,2.0,NNW,6.9,-,0.00,Snow,Light Snow,340,2013-12-22 01:27:00
6:53 PM,19.9,16.0,85,29.85,4.0,North,10.4,-,0.00,Snow,Light Snow,360,2013-12-22 01:53:00
7:53 PM,19.0,16.0,88,29.87,3.0,North,8.1,-,0.00,Snow,Light Snow,10,2013-12-22 02:53:00
7:57 PM,19.0,16.0,88,29.78,2.5,North,8.1,-,0.00,Snow,Light Snow,10,2013-12-22 02:57:00
8:05 PM,19.0,16.0,88,29.79,4.0,North,6.9,-,0.00,Snow,Light Snow,10,2013-12-22 03:05:00
8:53 PM,17.1,15.1,92,29.90,7.0,NW,4.6,-,0.00,Snow,Light Snow,310,2013-12-22 03:53:00
9:53 PM,17.1,15.1,92,29.91,7.0,Calm,Calm,-,0.00,Snow,Light Snow,0,2013-12-22 04:53:00
10:53 PM,8.1,7.0,95,29.96,10.0,SW,3.5,-,0.00,,Partly Cloudy,220,2013-12-22 05:53:00
11:53 PM,10.9,8.1,88,29.97,10.0,Calm,Calm,-,N/A,,Overcast,0,2013-12-22 06:53:00